Date String (YYYY-MM-DD hh:mm:ss) UTC,Instrument flags,Ambient pressure (hPa),Sample flow (lpm),Bypass flow (lpm),Sample temperature (°C),Ambient temperature (°C),ASC tube jacket temperature (°C),LED temperature (°C),Box temperature (°C),Sample RH (%),Span deviation,Mass concentration (μg/m³),Mass concentration (μg/m³),Mass concentration (μg/m³)
DateTimeUTC,F1_M11,P_M11,Q1_M11,Q2_M11,T1_M11,T2_M11,T3_M11,T4_M11,T5_M11,U1_M11,ZSPAN_M11,X0_M11,X2_M11,X1_M11
2021-10-04 07:00:00,,0832.1,5.00,0.00,30.3,29.2,00.0,39.5,32.0,10.3,0000.0,0006.85,0003.41,0003.00
2021-10-04 07:01:00,,0832.1,5.01,0.00,30.3,29.2,00.0,39.5,32.0,10.3,0000.0,0006.64,0003.42,0003.00
2021-10-04 07:02:00,,0832.1,4.99,0.00,30.3,29.2,00.0,39.5,32.0,10.3,0000.0,0006.49,0003.39,0002.98
2021-10-04 07:03:00,,0832.1,5.00,0.00,30.3,29.2,00.0,39.5,32.0,10.3,0000.0,0006.29,0003.35,0002.97
2021-10-04 07:04:00,,0832.2,5.00,0.00,30.3,29.2,00.0,39.5,32.0,10.4,0000.0,0007.15,0003.35,0002.96
2021-10-04 07:05:00,,0832.1,4.99,0.00,30.3,29.1,00.0,39.5,32.0,10.4,0000.0,0006.67,0003.36,0002.96
2021-10-04 07:06:00,,0832.1,5.00,0.00,30.3,29.1,00.0,39.5,32.0,10.4,0000.0,0005.94,0003.34,0002.97
2021-10-04 07:07:00,,0832.1,5.01,0.00,30.3,29.2,00.0,39.5,32.0,10.4,0000.0,0007.30,0003.36,0002.97
2021-10-04 07:08:00,,0832.1,5.01,0.00,30.3,29.2,00.0,39.5,32.0,10.4,0000.0,0007.92,0003.39,0002.96
2021-10-04 07:09:00,,0832.1,5.00,0.00,30.3,29.2,00.0,39.5,32.0,10.3,0000.0,0007.97,0003.40,0002.95
2021-10-04 07:10:00,,0832.1,5.00,0.00,30.3,29.2,00.0,39.5,32.0,10.3,0000.0,0007.99,0003.40,0002.95
2021-10-04 07:11:00,,0832.1,5.01,0.00,30.3,29.2,00.0,39.5,32.0,10.4,0000.0,0007.93,0003.39,0002.96
2021-10-04 07:12:00,,0832.1,5.00,0.00,30.3,29.2,00.0,39.5,32.0,10.4,0000.0,0007.74,0003.36,0002.96
2021-10-04 07:13:00,,0832.1,5.00,0.00,30.3,29.1,00.0,39.5,32.0,10.4,0000.0,0007.75,0003.36,0002.96
2021-10-04 07:14:00,,0832.1,5.00,0.00,30.3,29.2,00.0,39.5,32.0,10.4,0000.0,0007.78,0003.37,0002.95
2021-10-04 07:15:00,,0832.1,5.01,0.00,30.3,29.2,00.0,39.5,32.0,10.4,0000.0,0007.36,0003.38,0002.97
2021-10-04 07:16:00,,0832.1,4.99,0.00,30.3,29.2,00.0,39.5,32.0,10.4,0000.0,0007.36,0003.38,0002.97
2021-10-04 07:17:00,,0832.1,4.99,0.00,30.3,29.2,00.0,39.5,32.0,10.5,0000.0,0007.51,0003.41,0002.98
2021-10-04 07:18:00,,0832.1,5.00,0.00,30.3,29.2,00.0,39.5,32.0,10.4,0000.0,0006.65,0003.44,0002.99
2021-10-04 07:19:00,,0832.1,5.00,0.00,30.3,29.2,00.0,39.5,32.0,10.3,0000.0,0005.49,0003.41,0003.00
2021-10-04 07:20:00,,0832.1,5.00,0.00,30.3,29.2,00.0,39.4,32.0,10.4,0000.0,0005.68,0003.44,0003.02
2021-10-04 07:21:00,,0832.1,5.01,0.00,30.3,29.2,00.0,39.4,31.9,10.5,0000.0,0006.64,0003.45,0003.03
2021-10-04 07:22:00,,0832.2,5.00,0.00,30.3,29.2,00.0,39.4,32.0,10.4,0000.0,0006.94,0003.47,0003.01
2021-10-04 07:23:00,,0832.2,4.99,0.00,30.3,29.2,00.0,39.5,32.0,10.4,0000.3,0007.33,0003.53,0003.01
2021-10-04 07:24:00,,0832.2,5.00,0.00,30.3,29.2,00.0,39.4,32.0,10.5,0000.0,0007.36,0003.53,0003.03
2021-10-04 07:25:00,,0832.2,5.01,0.00,30.3,29.2,00.0,39.4,32.0,10.4,0000.0,0007.31,0003.53,0003.04
2021-10-04 07:26:00,,0832.3,4.99,0.00,30.3,29.2,00.0,39.4,32.0,10.4,0000.0,0007.19,0003.49,0003.02
2021-10-04 07:27:00,,0832.3,4.99,0.00,30.3,29.2,00.0,39.5,31.9,10.4,0000.0,0007.05,0003.49,0003.02
2021-10-04 07:28:00,,0832.3,5.01,0.00,30.3,29.2,00.0,39.5,31.9,10.4,0000.0,0006.74,0003.44,0003.01
2021-10-04 07:29:00,,0832.3,5.00,0.00,30.3,29.2,00.0,39.5,31.9,10.5,0000.0,0006.57,0003.43,0003.00
2021-10-04 07:30:00,,0832.3,4.99,0.00,30.3,29.2,00.0,39.5,32.0,10.4,0000.0,0007.09,0003.41,0003.00
2021-10-04 07:31:00,,0832.3,5.02,0.00,30.3,29.2,00.0,39.5,32.0,10.4,0000.0,0007.62,0003.39,0003.00
2021-10-04 07:32:00,,0832.3,5.00,0.00,30.3,29.2,00.0,39.5,32.0,10.4,0000.0,0007.62,0003.40,0003.00
2021-10-04 07:33:00,,0832.3,5.00,0.00,30.3,29.2,00.0,39.5,31.9,10.4,0000.0,0007.63,0003.39,0003.00
2021-10-04 07:34:00,,0832.3,5.01,0.00,30.3,29.2,00.0,39.4,31.9,10.5,0000.0,0007.54,0003.34,0002.99
2021-10-04 07:35:00,,0832.3,4.99,0.00,30.3,29.2,00.0,39.4,31.9,10.5,0000.0,0007.66,0003.33,0002.98
2021-10-04 07:36:00,,0832.2,5.01,0.00,30.3,29.1,00.0,39.4,31.9,10.5,0000.0,0008.25,0003.32,0002.97
2021-10-04 07:37:00,,0832.2,5.01,0.00,30.3,29.2,00.0,39.4,31.9,10.5,0000.0,0008.26,0003.33,0002.97
2021-10-04 07:38:00,,0832.3,5.00,0.00,30.3,29.2,00.0,39.4,31.9,10.5,0000.0,0008.63,0003.33,0002.96
2021-10-04 07:39:00,,0832.3,5.01,0.00,30.2,29.1,00.0,39.4,31.9,10.5,0000.0,0008.84,0003.34,0002.96
2021-10-04 07:40:00,,0832.3,5.00,0.00,30.3,29.2,00.0,39.4,31.9,10.5,0000.0,0008.80,0003.31,0002.92
2021-10-04 07:41:00,,0832.3,5.01,0.00,30.2,29.2,00.0,39.4,31.9,10.4,0000.0,0008.45,0003.29,0002.90
2021-10-04 07:42:00,,0832.2,5.00,0.00,30.3,29.2,00.0,39.4,32.0,10.4,0000.0,0007.88,0003.28,0002.86
2021-10-04 07:43:00,,0832.2,4.99,0.00,30.2,29.1,00.0,39.4,31.9,10.4,0000.0,0007.85,0003.25,0002.85
2021-10-04 07:44:00,,0832.3,5.00,0.00,30.2,29.1,00.0,39.4,31.9,10.5,0000.0,0008.18,0003.23,0002.85
2021-10-04 07:45:00,,0832.2,5.00,0.00,30.2,29.1,00.0,39.4,31.9,10.5,0000.0,0008.47,0003.24,0002.84
2021-10-04 07:46:00,,0832.3,5.01,0.00,30.2,29.1,00.0,39.4,31.9,10.5,0000.0,0008.32,0003.26,0002.83
2021-10-04 07:47:00,,0832.2,5.00,0.00,30.2,29.1,00.0,39.4,31.9,10.4,0000.0,0007.85,0003.29,0002.81
2021-10-04 07:48:00,,0832.3,4.99,0.00,30.2,29.1,00.0,39.4,31.9,10.4,-000.5,0007.88,0003.29,0002.80
2021-10-04 07:49:00,,0832.3,5.00,0.00,30.2,29.1,00.0,39.4,31.9,10.5,-000.5,0007.68,0003.27,0002.78
2021-10-04 07:50:00,,0832.3,5.00,0.00,30.2,29.1,00.0,39.4,31.9,10.4,0000.0,0007.59,0003.26,0002.76
2021-10-04 07:51:00,,0832.3,5.01,0.00,30.2,29.1,00.0,39.4,31.9,10.4,0000.0,0007.66,0003.26,0002.77
2021-10-04 07:52:00,,0832.3,5.02,0.00,30.2,29.1,00.0,39.4,31.9,10.4,0000.0,0007.73,0003.27,0002.77
2021-10-04 07:53:00,,0832.3,4.98,0.00,30.2,29.1,00.0,39.4,31.9,10.4,0000.0,0007.63,0003.25,0002.77
2021-10-04 07:54:00,,0832.2,5.01,0.00,30.2,29.1,00.0,39.4,31.9,10.4,0000.0,0006.79,0003.22,0002.76
2021-10-04 07:55:00,,0832.2,4.99,0.00,30.2,29.1,00.0,39.4,31.8,10.4,0000.0,0005.92,0003.22,0002.75
2021-10-04 07:56:00,,0832.3,5.01,0.00,30.2,29.1,00.0,39.4,31.8,10.4,0000.0,0005.13,0003.17,0002.74
2021-10-04 07:57:00,,0832.3,5.01,0.00,30.2,29.0,00.0,39.4,31.8,10.4,0000.0,0005.10,0003.15,0002.72
2021-10-04 07:58:00,,0832.3,4.99,0.00,30.2,29.1,00.0,39.4,31.9,10.4,0000.0,0005.03,0003.15,0002.72
2021-10-04 07:59:00,,0832.2,5.01,0.00,30.2,29.0,00.0,39.4,31.8,10.4,0000.0,0005.04,0003.14,0002.71
